Dati Storici

Data ora Umidita' aria (%) Temperatura aria (°C) Rad globale (W/m²) Gonioanemometro (°) Tacoanemometro (m/s) Pioggia (mm)
06-06-2020 10:50 75.6 % 22.596 -78.96 3.453 0 0
06-06-2020 10:40 75.9 % 22.656 -77.025 2.33 0 0
06-06-2020 10:30 78.1 % 22.314 -77.771 2.277 0 0
06-06-2020 10:20 78.1 % 22.439 -75.834 2.183 0 0
06-06-2020 10:10 78.4 % 21.851 -77.372 2.138 0 0
06-06-2020 10:00 78.5 % 21.847 -76.189 2.085 0 0
06-06-2020 09:50 79.1 % 21.35 -78.045 3.208 0 0
06-06-2020 09:40 78.8 % 21.422 -74.937 2.273 0 0
06-06-2020 09:30 77.9 % 21.863 -78.407 2.212 0 0
06-06-2020 09:20 78.8 % 22.171 -74.158 2.262 0 0
06-06-2020 09:10 76.7 % 21.567 -79.421 2.211 0 0
06-06-2020 09:00 78.2 % 21.756 -77.742 2.775 0 0
06-06-2020 08:50 83.3 % 21.636 -78.874 2.697 0 0
06-06-2020 08:40 87.6 % 20.717 -77.081 0.917 0 0
06-06-2020 08:30 87.9 % 20.491 -77.106 1.384 0 0
06-06-2020 08:20 88 % 20.672 -80.903 1.816 0 0
06-06-2020 08:10 85.5 % 20.673 -77.346 1.137 0 0
06-06-2020 08:00 87.7 % 20.414 -78.288 1.512 0 0
06-06-2020 07:50 89.9 % 20.838 -75.701 2.154 0 0
06-06-2020 07:40 92.3 % 20.143 -77.054 1.426 0 0

I dati sono presentati in modo automatico a scopo informativo. In seguito a verifica i dati possono subire modifiche o essere invalidati e non riportati negli archivi definitivi.